Regional Weather Roundup
Issued by NWS

Home | Current Version | Previous Version | Text Only | Print | Product List | Glossary On
Versions: 1 2 3 4 5 6 7 8 9 10 11 12 13 14 15 16 17 18 19 20 21 22 23 24 25 26 27 28 29 30 31 32 33 34 35 36 37 38 39 40 41 42 43 44 45 46 47 48 49 50
000
ASUS43 KBIS 270402
RWRND

NORTH DAKOTA REGIONAL WEATHER ROUNDUP
NATIONAL WEATHER SERVICE BISMARCK ND
1100 PM CDT FRI MAY 26 2017

NOTE: "FAIR" INDICATES FEW OR NO CLOUDS BELOW 12,000 FEET WITH NO
SIGNIFICANT WEATHER AND/OR OBSTRUCTIONS TO VISIBILITY.


NDZ001>003-009>011-017-270500-
NORTHWEST NORTH DAKOTA

CITY           SKY/WX    TMP DP  RH WIND       PRES   REMARKS
WILLISTON      FAIR      53  39  59 W8        29.84R
MINOT          FAIR      54  37  52 SW9       29.78R
MINOT AFB      PTCLDY    53  36  53 W9        29.77R
$$

NDZ018>021-031>035-040>046-270500-
SOUTHWEST NORTH DAKOTA

CITY           SKY/WX    TMP DP  RH WIND       PRES   REMARKS
BISMARCK       FAIR      55  38  52 SW6       29.85R
DICKINSON      FAIR      48  34  58 W8        29.87R
GARRISON         N/A     53  33  46 W7        29.81R
HETTINGER ARPT CLOUDY    50  36  58 NW3       29.92R
$$

NDZ004>008-012>016-024-026-027-054-270500-
NORTHEAST NORTH DAKOTA

CITY           SKY/WX    TMP DP  RH WIND       PRES   REMARKS
GRAND FORKS    CLEAR     55  43  63 SW10      29.77R
GRND FRKS AFB  CLEAR     51  42  70 SW7       29.77R
DEVILS LAKE    FAIR      54  46  74 SW7       29.78S
$$

NDZ022-023-025-028>030-036>039-047>053-270500-
SOUTHEAST NORTH DAKOTA

CITY           SKY/WX    TMP DP  RH WIND       PRES   REMARKS
FARGO          PTCLDY    56  42  59 SW6       29.81R
JAMESTOWN      FAIR      53  42  66 SW7       29.82R
$$





USA.gov is the U.S. government's official web portal to all federal, state and local government web resources and services.